KA1AL Weather Reports


Display with metric or nautical units.
time (UTC)temp
F
wind
direction
speed
MPH
gust
MPH
rain 1hr
in
rain 24hr
in
rain mn
in
humidity
%
barometer
mb
20260506023846 56 174 3.0 3.0 0.00 0.17 0.17 99 1007.2
20260506023343 56 151 1.0 2.0 0.00 0.17 0.17 99 1007.2
20260506022840 56 189 2.0 2.0 0.00 0.17 0.17 99 1007.3
20260506022338 56 174 2.0 2.0 0.00 0.17 0.17 99 1007.6
20260506021836 56 162 0.0 0.0 0.00 0.17 0.17 99 1007.3
20260506021332 56 177 0.0 0.0 0.00 0.17 0.17 99 1007.1
20260506020829 56 169 0.0 0.0 0.00 0.17 0.17 99 1006.7
20260506020327 56 166 0.0 0.0 0.00 0.17 0.17 99 1006.7
20260506015824 56 234 2.0 2.0 0.00 0.17 0.17 99 1006.5
20260506015322 56 185 1.0 1.0 0.00 0.17 0.17 99 1006.4
20260506014818 56 189 0.0 1.0 0.00 0.17 0.17 99 1007.0
20260506014315 56 148 1.0 2.0 0.00 0.17 0.17 99 1006.8
20260506013812 57 219 2.0 3.0 0.00 0.17 0.17 99 1006.9
20260506013309 57 200 2.0 2.0 0.00 0.17 0.17 99 1006.6
20260506012806 56 134 3.0 3.0 0.00 0.17 0.17 99 1006.8
20260506012307 56 155 0.0 0.0 0.00 0.17 0.17 99 1006.7
20260506011800 56 93 1.0 1.0 0.00 0.17 0.17 99 1006.0
20260506011255 57 78 1.0 2.0 0.00 0.17 0.17 99 1006.1
20260506010754 57 131 0.0 0.0 0.00 0.17 0.17 99 1006.3
20260506010251 57 156 0.0 1.0 0.00 0.17 0.17 99 1006.3
20260506005748 57 121 0.0 0.0 0.00 0.17 0.17 99 1006.2
20260506005245 57 147 1.0 1.0 0.00 0.17 0.17 99 1006.2
20260506004741 57 176 0.0 0.0 0.00 0.17 0.17 99 1006.3
20260506004239 57 211 1.0 2.0 0.00 0.17 0.17 99 1006.5
20260506003734 57 193 1.0 2.0 0.00 0.17 0.17 99 1006.3
20260506003231 57 204 4.0 5.0 0.00 0.17 0.17 99 1006.2
20260506002727 57 155 6.0 8.0 0.00 0.17 0.17 99 1006.1
20260506002224 57 217 2.0 2.0 0.00 0.17 0.17 99 1006.4
20260506001719 57 208 3.0 3.0 0.00 0.17 0.17 99 1006.2
20260506001217 57 246 4.0 5.0 0.00 0.17 0.17 99 1006.2
20260506000714 57 253 2.0 2.0 0.00 0.17 0.17 99 1005.7
20260506000212 57 233 2.0 2.0 0.07 0.17 0.17 99 1005.6
20260505235709 58 263 2.0 2.0 0.07 0.17 0.17 99 1005.6
20260505235206 58 229 5.0 6.0 0.05 0.16 0.16 99 1005.9
20260505234703 58 209 4.0 6.0 0.05 0.16 0.16 99 1006.1
20260505234200 57 225 3.0 3.0 0.00 0.15 0.15 99 1006.1
20260505233656 58 228 3.0 3.0 0.00 0.15 0.15 99 1006.0
20260505233154 58 217 6.0 7.0 0.00 0.15 0.15 99 1005.7
20260505232646 58 220 5.0 6.0 0.00 0.15 0.15 99 1005.8
20260505232143 58 237 4.0 5.0 0.00 0.15 0.15 99 1005.6
20260505231640 58 217 4.0 6.0 0.12 0.15 0.15 99 1005.7
20260505231139 58 221 4.0 6.0 0.19 0.15 0.15 99 1005.7
20260505230636 58 266 7.0 8.0 0.12 0.13 0.13 99 1005.6
20260505230132 58 255 6.0 7.0 0.12 0.12 0.12 99 1005.6
20260505225629 58 279 5.0 7.0 0.07 0.11 0.11 99 1005.8
20260505225125 58 233 5.0 7.0 0.12 0.11 0.11 99 1005.5
20260505224622 59 281 11.0 13.0 0.17 0.10 0.10 99 1005.7
20260505224119 59 288 7.0 8.0 0.19 0.09 0.09 99 1005.9
20260505223616 59 229 13.0 17.0 0.31 0.07 0.07 99 1005.9
20260505223113 59 285 6.0 8.0 0.35 0.06 0.06 99 1005.7
20260505222609 60 243 6.0 9.0 0.17 0.03 0.03 96 1005.6
20260505222105 63 260 9.0 13.0 0.00 0.00 0.00 87 1005.2
20260505221602 66 281 7.0 8.0 0.00 0.00 0.00 79 1004.6
20260505221059 69 260 9.0 13.0 0.00 0.00 0.00 64 1004.5
20260505220556 69 243 11.0 14.0 0.00 0.00 0.00 63 1003.3
20260505220054 69 203 9.0 10.0 0.00 0.00 0.00 63 1002.5
20260505215552 69 185 10.0 13.0 0.00 0.00 0.00 63 1002.5
20260505215049 70 192 5.0 8.0 0.00 0.00 0.00 62 1002.2
20260505214547 70 189 12.0 15.0 0.00 0.00 0.00 62 1002.4
20260505214044 70 210 4.0 7.0 0.00 0.00 0.00 62 1002.0
20260505213542 71 254 12.0 15.0 0.00 0.00 0.00 61 1002.2
20260505213038 71 240 10.0 13.0 0.00 0.00 0.00 60 1002.1
20260505212534 71 248 10.0 14.0 0.00 0.00 0.00 60 1002.0
20260505212032 71 236 11.0 15.0 0.00 0.00 0.00 61 1002.0
20260505211529 71 159 8.0 9.0 0.00 0.00 0.00 61 1002.0
20260505211025 71 184 9.0 10.0 0.00 0.00 0.00 61 1001.9
20260505210522 71 263 5.0 7.0 0.00 0.00 0.00 61 1001.9
20260505210019 71 169 13.0 16.0 0.00 0.00 0.00 60 1002.0
20260505205517 72 173 10.0 13.0 0.00 0.00 0.00 59 1001.6
20260505205014 72 225 9.0 10.0 0.00 0.00 0.00 59 1001.8
20260505204512 73 193 9.0 11.0 0.00 0.00 0.00 59 1001.8
20260505204009 72 243 8.0 11.0 0.00 0.00 0.00 58 1001.9
20260505203505 72 201 14.0 16.0 0.00 0.00 0.00 59 1002.1
20260505203001 73 220 13.0 15.0 0.00 0.00 0.00 58 1002.1
20260505202458 72 250 21.0 26.0 0.00 0.00 0.00 58 1002.0
20260505201954 72 161 10.0 13.0 0.00 0.00 0.00 58 1001.9
20260505201451 73 185 17.0 21.0 0.00 0.00 0.00 57 1002.0
20260505200949 73 244 17.0 22.0 0.00 0.00 0.00 57 1001.8
20260505200447 73 241 6.0 7.0 0.00 0.00 0.00 57 1001.8
20260505195942 73 233 11.0 23.0 0.00 0.00 0.00 59 1002.1
20260505195440 73 208 15.0 22.0 0.00 0.00 0.00 57 1001.9
20260505194937 73 231 15.0 21.0 0.00 0.00 0.00 57 1001.8
20260505194434 74 214 10.0 16.0 0.00 0.00 0.00 57 1002.0
20260505193934 74 247 12.0 14.0 0.00 0.00 0.00 56 1001.9
20260505193432 74 259 12.0 14.0 0.00 0.00 0.00 56 1002.2
20260505192930 74 271 14.0 17.0 0.00 0.00 0.00 56 1002.2
20260505192428 74 225 11.0 15.0 0.00 0.00 0.00 56 1002.2
20260505191925 75 227 14.0 21.0 0.00 0.00 0.00 56 1002.2
20260505191424 75 218 8.0 11.0 0.00 0.00 0.00 56 1002.3
20260505190920 74 208 13.0 21.0 0.00 0.00 0.00 56 1002.4
20260505190415 74 203 7.0 9.0 0.00 0.00 0.00 56 1002.5
20260505185911 74 220 8.0 11.0 0.00 0.00 0.00 56 1002.4
20260505185408 74 207 15.0 21.0 0.00 0.00 0.00 55 1002.5
20260505184904 74 227 13.0 17.0 0.00 0.00 0.00 56 1002.4
20260505184401 73 233 14.0 17.0 0.00 0.00 0.00 56 1002.6
20260505183858 73 198 10.0 14.0 0.00 0.00 0.00 56 1002.7
20260505183355 73 190 9.0 13.0 0.00 0.00 0.00 59 1002.8
20260505182851 73 238 20.0 26.0 0.00 0.00 0.00 57 1002.8
20260505182348 73 253 9.0 13.0 0.00 0.00 0.00 57 1003.0
20260505181845 74 198 13.0 15.0 0.00 0.00 0.00 56 1002.8
20260505181342 74 179 18.0 25.0 0.00 0.00 0.00 55 1002.8
20260505180839 74 226 12.0 14.0 0.00 0.00 0.00 55 1002.9
20260505180335 74 188 5.0 7.0 0.00 0.00 0.00 59 1002.8
20260505175832 74 243 18.0 24.0 0.00 0.00 0.00 56 1003.1
20260505175328 74 217 11.0 13.0 0.00 0.00 0.00 58 1003.2
20260505174825 73 222 10.0 13.0 0.00 0.00 0.00 57 1003.3
20260505174323 73 214 15.0 18.0 0.00 0.00 0.00 56 1003.5
20260505173818 73 223 6.0 10.0 0.00 0.00 0.00 58 1003.2
20260505173315 73 154 11.0 15.0 0.00 0.00 0.00 58 1003.6
20260505172813 73 208 16.0 20.0 0.00 0.00 0.00 55 1003.5
20260505172310 73 211 9.0 13.0 0.00 0.00 0.00 56 1003.7
20260505171804 72 232 5.0 8.0 0.00 0.00 0.00 57 1003.8
20260505171301 72 234 13.0 18.0 0.00 0.00 0.00 57 1004.0
20260505170757 72 252 15.0 20.0 0.00 0.00 0.00 57 1004.4
20260505170255 71 245 12.0 18.0 0.00 0.00 0.00 58 1004.1
20260505165750 71 191 9.0 10.0 0.00 0.00 0.00 58 1004.5
20260505165246 71 167 16.0 21.0 0.00 0.00 0.00 60 1004.0
20260505164741 71 198 16.0 21.0 0.00 0.00 0.00 57 1004.1
20260505164239 71 202 14.0 17.0 0.00 0.00 0.00 59 1004.5
20260505163737 70 191 11.0 15.0 0.00 0.00 0.00 59 1004.5
20260505163236 71 217 9.0 11.0 0.00 0.00 0.00 59 1004.5
20260505162732 70 239 11.0 13.0 0.00 0.00 0.00 59 1004.6
20260505162229 69 209 6.0 11.0 0.00 0.00 0.00 60 1004.6
20260505161726 69 179 5.0 7.0 0.00 0.00 0.00 61 1004.8
20260505161224 69 192 3.0 7.0 0.00 0.00 0.00 63 1004.8
20260505160721 69 199 11.0 14.0 0.00 0.00 0.00 61 1004.8
20260505160219 67 215 9.0 14.0 0.00 0.00 0.00 61 1005.1
20260505153158 66 221 9.0 13.0 0.00 0.00 0.00 63 1005.7
20260505152654 66 218 13.0 16.0 0.00 0.00 0.00 64 1005.8
20260505152151 66 231 11.0 14.0 0.00 0.00 0.00 64 1005.8
20260505151646 65 244 8.0 11.0 0.00 0.00 0.00 64 1005.8
20260505151144 66 212 10.0 11.0 0.00 0.00 0.00 64 1005.8
20260505150639 65 184 10.0 14.0 0.00 0.00 0.00 65 1005.8
20260505150137 64 197 7.0 9.0 0.00 0.00 0.00 64 1005.7
20260505140605 60 154 5.0 7.0 0.00 0.00 0.00 71 1006.2
20260505125018 54 201 7.0 9.0 0.00 0.00 0.00 77 1006.3
20260505124515 54 241 7.0 8.0 0.00 0.00 0.00 77 1006.4
20260505124012 54 197 7.0 9.0 0.00 0.00 0.00 77 1006.6
20260505123508 55 214 9.0 9.0 0.00 0.00 0.00 76 1006.4
20260505123004 55 266 4.0 7.0 0.00 0.00 0.00 77 1006.4
20260505122501 54 249 5.0 8.0 0.00 0.00 0.00 78 1006.4
20260505121958 54 244 7.0 8.0 0.00 0.00 0.00 80 1006.5
20260505121455 53 219 6.0 7.0 0.00 0.00 0.00 79 1006.8
20260505120951 53 234 5.0 7.0 0.00 0.00 0.00 81 1006.3
20260505120447 53 229 7.0 9.0 0.00 0.00 0.00 81 1006.5
20260505115946 53 219 9.0 10.0 0.00 0.00 0.00 80 1006.7
20260505115443 52 199 5.0 10.0 0.00 0.00 0.00 81 1006.4
20260505114942 52 248 4.0 5.0 0.00 0.00 0.00 82 1006.7
20260505114437 51 223 6.0 8.0 0.00 0.00 0.00 84 1006.5
20260505113934 50 199 5.0 7.0 0.00 0.00 0.00 84 1006.7
20260505113430 50 196 4.0 7.0 0.00 0.00 0.00 83 1006.4
20260505112926 50 206 5.0 7.0 0.00 0.00 0.00 84 1006.5
20260505112424 50 195 3.0 3.0 0.00 0.00 0.00 85 1006.8
20260505111920 49 212 0.0 1.0 0.00 0.00 0.00 85 1006.7
20260505111415 49 195 3.0 3.0 0.00 0.00 0.00 86 1006.7
20260505110912 48 217 1.0 2.0 0.00 0.00 0.00 86 1006.4
20260505110409 48 205 3.0 3.0 0.00 0.00 0.00 86 1006.7
20260505101839 46 196 2.0 2.0 0.00 0.00 0.00 88 1006.5
20260505101334 46 225 2.0 2.0 0.00 0.00 0.00 89 1006.6
20260505100830 46 211 2.0 3.0 0.00 0.00 0.00 89 1006.7
20260505100327 46 242 3.0 3.0 0.00 0.00 0.00 89 1006.4
20260505095822 46 217 2.0 2.0 0.00 0.00 0.00 89 1006.4
20260505095321 45 185 2.0 3.0 0.00 0.00 0.00 90 1006.4
20260505094816 45 209 1.0 2.0 0.00 0.00 0.00 90 1006.5
20260505094313 46 209 3.0 3.0 0.00 0.00 0.00 90 1006.2
20260505093809 46 196 3.0 3.0 0.00 0.00 0.00 89 1006.6
20260505093307 46 225 3.0 5.0 0.00 0.00 0.00 89 1006.4
20260505092803 45 209 2.0 3.0 0.00 0.00 0.00 90 1006.3
20260505092304 45 195 0.0 0.0 0.00 0.00 0.00 91 1006.2
20260505091759 45 190 1.0 1.0 0.00 0.00 0.00 90 1006.3
20260505091256 45 212 1.0 2.0 0.00 0.00 0.00 90 1006.3
20260505090754 45 241 3.0 3.0 0.00 0.00 0.00 91 1006.3
20260505090252 45 201 3.0 3.0 0.00 0.00 0.00 91 1006.3
20260505085749 45 217 3.0 3.0 0.00 0.00 0.00 91 1006.7
20260505085247 45 241 1.0 1.0 0.00 0.00 0.00 91 1006.3
20260505084744 45 188 2.0 2.0 0.00 0.00 0.00 91 1006.3
20260505084243 45 223 2.0 2.0 0.00 0.00 0.00 91 1006.6
20260505083739 45 203 1.0 2.0 0.00 0.00 0.00 91 1006.6
20260505083236 45 234 1.0 2.0 0.00 0.00 0.00 91 1006.6
20260505082732 45 188 1.0 1.0 0.00 0.00 0.00 91 1006.7
20260505082230 45 213 2.0 2.0 0.00 0.00 0.00 91 1006.9
20260505081725 45 193 1.0 2.0 0.00 0.00 0.00 90 1006.6
20260505081223 45 173 1.0 1.0 0.00 0.00 0.00 91 1006.6
20260505080720 46 203 1.0 2.0 0.00 0.00 0.00 90 1006.7
20260505080215 46 194 2.0 2.0 0.00 0.00 0.00 90 1006.7
20260505075711 46 263 1.0 1.0 0.00 0.00 0.00 90 1006.5
20260505075209 46 177 1.0 1.0 0.00 0.00 0.00 89 1006.5
20260505074706 46 164 1.0 1.0 0.00 0.00 0.00 89 1006.3
20260505074203 46 200 0.0 1.0 0.00 0.00 0.00 89 1006.5
20260505073700 46 183 1.0 1.0 0.00 0.00 0.00 89 1006.6
20260505073158 46 192 1.0 2.0 0.00 0.00 0.00 89 1006.6
20260505072654 46 177 1.0 2.0 0.00 0.00 0.00 89 1006.6
20260505072151 46 204 2.0 2.0 0.00 0.00 0.00 89 1006.5
20260505071646 46 181 1.0 1.0 0.00 0.00 0.00 90 1006.6
20260505071144 45 201 2.0 2.0 0.00 0.00 0.00 91 1006.5
20260505070641 45 238 0.0 0.0 0.00 0.00 0.00 90 1006.3
20260505070137 46 173 0.0 0.0 0.00 0.00 0.00 89 1006.4
20260505065633 45 183 0.0 0.0 0.00 0.00 0.00 90 1006.5
20260505065130 45 172 0.0 0.0 0.00 0.00 0.00 90 1006.4
20260505064627 45 150 0.0 0.0 0.00 0.00 0.00 91 1006.5
20260505064125 45 156 0.0 0.0 0.00 0.00 0.00 89 1006.6
20260505063622 45 119 0.0 0.0 0.00 0.00 0.00 90 1006.5
20260505063118 46 158 0.0 0.0 0.00 0.00 0.00 89 1006.6
20260505062615 46 134 0.0 0.0 0.00 0.00 0.00 89 1006.6
20260505062112 46 166 0.0 0.0 0.00 0.00 0.00 88 1006.7
20260505061609 46 201 1.0 1.0 0.00 0.00 0.00 88 1007.0
20260505061108 46 192 0.0 0.0 0.00 0.00 0.00 88 1006.9
20260505060604 47 201 0.0 0.0 0.00 0.00 0.00 86 1006.8
20260505055556 48 149 0.0 0.0 0.00 0.00 0.00 84 1006.7
20260505055053 48 125 0.0 0.0 0.00 0.00 0.00 83 1006.6
20260505054550 49 137 0.0 0.0 0.00 0.00 0.00 83 1006.6
20260505054049 49 155 0.0 1.0 0.00 0.00 0.00 82 1006.9
20260505053545 49 184 1.0 2.0 0.00 0.00 0.00 82 1006.7
20260505053042 48 140 0.0 0.0 0.00 0.00 0.00 82 1006.6
20260505052539 49 175 0.0 0.0 0.00 0.00 0.00 82 1006.5
20260505052037 48 134 0.0 0.0 0.00 0.00 0.00 82 1006.5
20260505051533 49 103 1.0 1.0 0.00 0.00 0.00 82 1006.6
20260505051031 49 180 0.0 0.0 0.00 0.00 0.00 81 1006.5
20260505050529 50 165 1.0 1.0 0.00 0.00 0.00 80 1006.5
20260505041457 49 59 3.0 3.0 0.00 0.00 0.00 83 1006.6
20260505040954 48 73 2.0 2.0 0.00 0.00 0.00 85 1006.5
20260505040451 48 73 2.0 2.0 0.00 0.00 0.00 85 1006.6
20260505035948 49 64 3.0 3.0 0.00 0.02 0.02 84 1006.5
20260505035444 50 57 2.0 2.0 0.00 0.02 0.02 80 1006.6
20260505034942 49 88 2.0 3.0 0.00 0.02 0.02 83 1006.3
20260505034438 50 59 2.0 2.0 0.00 0.02 0.02 82 1006.6
20260505033935 52 109 2.0 2.0 0.00 0.02 0.02 77 1006.4
20260505033432 52 111 2.0 2.0 0.00 0.02 0.02 76 1006.4
20260505032930 52 94 3.0 3.0 0.00 0.02 0.02 77 1006.5
20260505032427 52 108 2.0 2.0 0.00 0.02 0.02 77 1006.5
20260505031923 52 94 1.0 2.0 0.00 0.02 0.02 77 1006.4
20260505031420 52 104 3.0 3.0 0.00 0.02 0.02 77 1006.3
20260505030917 52 119 3.0 5.0 0.00 0.02 0.02 78 1006.6
20260505030413 51 106 3.0 5.0 0.00 0.02 0.02 79 1006.8
20260505025909 50 94 2.0 2.0 0.00 0.02 0.02 82 1006.6
20260505025406 51 59 3.0 3.0 0.00 0.02 0.02 80 1006.6
20260505024905 52 90 2.0 2.0 0.00 0.02 0.02 78 1006.5
20260505024402 52 88 2.0 2.0 0.00 0.02 0.02 77 1006.7